{"data":{"norad_id":62983,"intl_designator":"2025-031C","name":"STARLINK-11417 [DTC]","alt_names":[],"object_type":"PAYLOAD","status":"ACTIVE","operator":null,"country":"US","launch_date":"2025-02-11","launch_site_code":"AFETR","launch_vehicle":null,"mission":null,"orbit_class":"UNKNOWN","rcs_meters":null,"size_class":null,"mass_kg":null,"dimensions":null,"purposes":["comms"],"wikipedia_slug":null,"has_3d_model":false,"image_url":null,"decayed_at":null,"tle_current":{"epoch":"2026-05-25T00:37:32.753856Z","epoch_age_seconds":68823,"freshness":"FRESH","line1":"1 62983U 25031C   26145.02607354  .00165993  00000+0  12694-2 0  9990","line2":"2 62983  42.9996 261.7324 0001665  41.9222 318.1773 15.70877670 74742","mean_motion":15.7087767,"eccentricity":0.0001665,"inclination_deg":42.9996,"raan_deg":261.7324,"arg_perigee_deg":41.9222,"mean_anomaly_deg":318.1773,"bstar":0.0012694,"rev_number":7474,"period_min":91.668500195817,"perigee_km":355.26609749819,"apogee_km":357.508694122,"semimajor_km":6734.5243958101,"source":"CELESTRAK","updated_at":"2026-05-25T13:38:19.830077Z"}}}